[[{"header":{"parameterUnit":"m.s-1","parameterCategory":1,"la1":30.2991,"la2":30.254,"lo1":-89.0895,"lo2":-89.0444,"dy":0.0017,"dx":0.0017,"nx":28,"ny":28,"refTime":"2025-08-07T03:00:00:Z","depth":0,"parameterNumber":2,"parameterNumberName":"U-component_of_WINDS"},"data":[0,0,0,0,0,0,0,0,0,0,0,0,0,0,0,0,0,0,0,0,0,0,0,0,0,0,0,0,0,0,0,0,0,0,0,0,0,0,0,0,0,0,0,0,0,0,0,0,0,0,0,0,0,0,0,0,0,0,1.4176,1.4178,0,1.4347,1.4349,1.435,1.4405,1.4405,1.4404,1.4403,1.4579,1.4584,1.4589,0,0,0,0,0,0,0,0,0,0,0,0,0,1.3899,1.3903,1.4176,1.4178,1.4181,1.4346,1.4349,1.4351,1.4405,1.4405,1.4404,1.4403,1.4577,1.4583,1.459,0,0,0,0,0,0,0,0,0,0,0,0,0,1.4039,1.3905,1.4176,1.4228,1.4234,1.4346,1.4349,1.4352,1.4406,1.4405,1.4403,1.4402,1.4575,1.4583,1.4591,1.4664,0,0,1.4616,1.4619,0,0,0,0,0,0,0,0,1.4031,1.4049,1.4218,1.4224,1.4232,1.4354,1.4315,1.4456,1.4406,1.4341,1.4403,1.4402,1.4505,1.4519,1.4553,1.4672,1.468,1.4616,1.4621,1.4625,1.4627,0,0,0,0,0,0,0,1.4021,1.4042,1.4244,1.422,1.4229,1.4242,1.4261,1.4342,1.4427,1.4346,1.4351,1.437,1.4508,1.4545,1.4558,1.4682,1.4616,1.4623,1.4628,1.4631,1.4868,1.487,0,0,0,0,0,0,1.4003,1.4034,1.4238,1.4249,1.4126,1.4248,1.4269,1.4316,1.4426,1.4442,1.4371,1.4372,1.4532,1.4548,1.4564,1.4656,1.4625,1.4632,1.4637,1.4867,1.4869,1.487,0,0,0,0,0,0,1.3996,1.402,1.4231,1.4143,1.417,1.4254,1.4306,1.432,1.4356,1.4445,1.446,1.4393,1.4532,1.4553,1.4638,1.4663,1.4636,1.4643,1.4865,1.4868,1.487,1.4841,0,0,0,0,0,0,1.3988,1.4018,1.4046,1.4143,1.4175,1.4303,1.4308,1.4324,1.437,1.4373,1.447,1.4485,1.4532,1.4626,1.4646,1.4674,1.465,1.4863,1.4866,1.4869,1.484,1.4842,1.4844,0,0,0,0,0,1.3978,1.4032,1.4048,1.4072,1.4212,1.4304,1.4322,1.4376,1.4372,1.4401,1.4458,1.4482,1.4657,1.4634,1.4658,1.4688,1.4862,1.4865,1.4869,1.4839,1.4842,1.4843,0,0,0,0,0,0,1.3938,1.4046,1.4064,1.4151,1.4218,1.4313,1.4352,1.4377,1.4446,1.4446,1.451,1.4532,1.4612,1.4659,1.4631,1.4764,1.4761,1.4769,1.473,1.4733,1.4735,1.4722,1.4656,0,0,0,0,0,1.3939,1.4004,1.4095,1.4163,1.4195,1.4267,1.4309,1.4345,1.4416,1.4445,1.4508,1.4577,1.4648,1.4693,1.4763,1.4847,1.4869,1.4879,1.4881,1.4882,1.4888,1.4935,1.4941,1.4881,1.4881,1.4881,0,0,1.3942,1.4009,1.4046,1.4156,1.4212,1.4278,1.4291,1.436,1.441,1.4456,1.454,1.4589,1.467,1.4754,1.4795,1.4796,1.4909,1.4886,1.4886,1.4892,1.4939,1.4944,1.4949,1.4883,1.4883,1.4882,0,0,1.3981,1.4038,1.4101,1.4156,1.424,1.4287,1.4302,1.4394,1.4427,1.4513,1.4548,1.4608,1.4729,1.4785,1.4829,1.4887,1.4912,1.4908,1.4917,1.4962,1.4967,1.4971,1.4991,1.4998,1.4914,1.4914,1.4914,0,1.3974,1.4075,1.413,1.4197,1.4244,1.4288,1.4351,1.4402,1.4505,1.4536,1.4535,1.4686,1.4745,1.4842,1.4856,1.4891,1.491,1.4898,1.4962,1.4967,1.4972,1.4992,1.4999,1.4913,1.4913,1.4914,1.4914,0,1.4062,1.413,1.4171,1.4267,1.4319,1.4384,1.4449,1.4494,1.4525,1.4572,1.4658,1.4729,1.4813,1.4839,1.487,1.4941,1.4939,1.4949,1.4947,1.4975,1.4995,1.5003,1.4912,1.4912,1.4913,1.4913,0,0,1.4081,1.4206,1.422,1.4264,1.4359,1.4414,1.448,1.4562,1.4599,1.4668,1.4725,1.4825,1.4835,1.4885,1.4923,1.4962,1.5003,1.4968,1.497,1.4971,1.5084,1.5076,1.5084,1.5019,1.5021,1.5022,1.5077,0,1.4132,1.4252,1.4303,1.4399,1.4463,1.4505,1.4563,1.4627,1.4673,1.4734,1.4785,1.4854,1.4862,1.4892,1.4933,1.4989,1.5026,1.4986,1.5073,1.5075,1.505,1.5094,1.5086,1.5134,1.5085,1.5087,1.5088,0,1.4208,1.4276,1.4378,1.4464,1.4493,1.4544,1.4622,1.468,1.4754,1.4784,1.4839,1.4874,1.4945,1.4938,1.5037,1.5008,1.5047,1.5079,1.5082,1.5092,1.5083,1.5105,1.5151,1.5158,1.5101,1.51,1.5099,0,1.421,1.4328,1.4404,1.444,1.4543,1.4577,1.4622,1.4694,1.474,1.4808,1.4839,1.4915,1.4956,1.5015,1.5069,1.5059,1.5162,1.516,1.5189,1.5188,1.5209,1.5207,1.5262,1.5234,1.5234,1.5234,1.5234,0,1.4262,1.4323,1.4406,1.4453,1.4522,1.458,1.4647,1.4694,1.4758,1.4815,1.4856,1.4909,1.4978,1.5039,1.5082,1.5157,1.5175,1.5202,1.5213,1.5198,1.5195,1.5224,1.5222,1.5236,1.5236,1.5235,1.5235,0,1.4277,1.4335,1.4421,1.451,1.4534,1.4581,1.4658,1.4705,1.4752,1.4823,1.4843,1.4917,1.4991,1.5051,1.5149,1.5178,1.5255,1.5268,1.523,1.5236,1.5261,1.5258,1.5337,1.535,1.5313,1.5314,1.5314,0,1.4305,1.4353,1.4447,1.4487,1.4531,1.4596,1.4642,1.47,1.4747,1.4833,1.487,1.4946,1.5011,1.5127,1.519,1.5264,1.5278,1.5301,1.529,1.5273,1.5278,1.5274,1.5279,1.5302,1.5302,1.5302,1.5302,0,1.435,1.4376,1.4441,1.4515,1.4569,1.4631,1.4693,1.4724,1.4794,1.4844,1.4919,1.4969,1.5068,1.5143,1.5224,1.527,1.5298,1.5305,1.5316,1.5301,1.5277,1.529,1.5232,1.5303,1.5303,1.5303,1.5303,1.5303,1.4373,1.4416,1.4489,1.4559,1.4612,1.4669,1.4717,1.477,1.4834,1.4917,1.4948,1.5025,1.5097,1.5208,1.5254,1.5316,1.5318,1.5334,1.5338,1.5341,1.5338,1.5267,1.5331,1.5331,1.5331,1.5331,1.5331,0,1.4419,1.4467,1.4531,1.4617,1.4672,1.4692,1.4762,1.4807,1.4874,1.4938,1.5,1.5086,1.5159,1.5227,1.5304,1.534,1.5354,1.5358,1.5355,1.5365,1.5332,1.5315,1.5344,1.5344,1.5344,1.5344,1.5344,1.5344,1.4449,1.4524,1.4558,1.4659,1.4707,1.4783,1.4821,1.4874,1.4925,1.5019,1.5079,1.5123,1.5188,1.527,1.5337,1.5355,1.5381,1.5381,1.5403,1.537,1.5368,1.5366,1.535,1.5387,1.5387,1.5431,1.5432,1.5432]},{"header":{"parameterUnit":"m.s-1","parameterCategory":1,"la1":30.2991,"la2":30.254,"lo1":-89.0895,"lo2":-89.0444,"dy":0.0017,"dx":0.0017,"nx":28,"ny":28,"refTime":"2025-08-07T03:00:00:Z","depth":0,"parameterNumber":3,"parameterNumberName":"V-component_of_WINDS"},"data":[0,0,0,0,0,0,0,0,0,0,0,0,0,0,0,0,0,0,0,0,0,0,0,0,0,0,0,0,0,0,0,0,0,0,0,0,0,0,0,0,0,0,0,0,0,0,0,0,0,0,0,0,0,0,0,0,0,0,1.3663,1.3663,0,1.3641,1.3641,1.364,1.3587,1.3586,1.3585,1.3584,1.3561,1.3562,1.3562,0,0,0,0,0,0,0,0,0,0,0,0,0,1.366,1.366,1.3663,1.3663,1.3663,1.3641,1.3641,1.364,1.3587,1.3586,1.3585,1.3583,1.3561,1.3562,1.3562,0,0,0,0,0,0,0,0,0,0,0,0,0,1.3652,1.366,1.3663,1.3634,1.3631,1.3641,1.3641,1.364,1.3588,1.3586,1.3584,1.3583,1.3561,1.3562,1.3562,1.3599,0,0,1.3564,1.3564,0,0,0,0,0,0,0,0,1.3652,1.3652,1.3638,1.3636,1.3633,1.3615,1.3631,1.3627,1.3588,1.3604,1.3584,1.3582,1.3581,1.3579,1.3579,1.3598,1.3597,1.3564,1.3565,1.3565,1.3565,0,0,0,0,0,0,0,1.3653,1.3653,1.3655,1.3638,1.3635,1.3621,1.3618,1.363,1.3602,1.3603,1.3599,1.3597,1.3579,1.3578,1.3578,1.3597,1.3564,1.3565,1.3565,1.3565,1.3645,1.3646,0,0,0,0,0,0,1.3658,1.3654,1.3655,1.3654,1.3639,1.3623,1.3619,1.3622,1.3602,1.3597,1.3598,1.3594,1.3578,1.3577,1.3577,1.3619,1.3565,1.3565,1.3566,1.3643,1.3645,1.3647,0,0,0,0,0,0,1.3658,1.3659,1.3656,1.3653,1.3651,1.3625,1.3628,1.3623,1.3623,1.3598,1.3593,1.3603,1.3577,1.3576,1.3594,1.3617,1.3566,1.3566,1.3641,1.3644,1.3646,1.3703,0,0,0,0,0,0,1.3658,1.3659,1.3673,1.3653,1.3652,1.3674,1.363,1.3624,1.3624,1.3619,1.3602,1.3597,1.3575,1.3593,1.3595,1.3617,1.3567,1.3639,1.3642,1.3645,1.3699,1.3707,1.3714,0,0,0,0,0,1.3658,1.369,1.3674,1.3675,1.3669,1.3675,1.3674,1.3649,1.3626,1.364,1.3624,1.3598,1.3614,1.3596,1.3597,1.362,1.3637,1.3641,1.3645,1.3695,1.3705,1.3714,0,0,0,0,0,0,1.3714,1.3687,1.3669,1.3696,1.3688,1.3666,1.3683,1.366,1.3659,1.3654,1.3622,1.3619,1.3641,1.3632,1.3612,1.3654,1.3621,1.3626,1.3659,1.3669,1.3676,1.3678,1.3567,0,0,0,0,0,1.3729,1.3737,1.3713,1.3739,1.3736,1.371,1.3712,1.3693,1.3684,1.3681,1.3666,1.3658,1.3661,1.3664,1.3666,1.3697,1.3692,1.3713,1.372,1.3727,1.3731,1.3746,1.3754,1.3659,1.3659,1.3659,0,0,1.3761,1.3747,1.3754,1.375,1.3742,1.375,1.3708,1.3719,1.3725,1.3682,1.3698,1.3687,1.3676,1.37,1.371,1.3693,1.3756,1.3732,1.3737,1.3738,1.375,1.3759,1.3768,1.3662,1.3662,1.3661,0,0,1.3824,1.3814,1.3834,1.3827,1.3815,1.3797,1.3802,1.3783,1.3774,1.379,1.3758,1.3764,1.377,1.3764,1.3761,1.3819,1.3795,1.3821,1.3861,1.3876,1.3883,1.389,1.391,1.3918,1.3825,1.3825,1.3825,0,1.3865,1.3876,1.3847,1.386,1.3859,1.382,1.384,1.3834,1.3823,1.3823,1.3804,1.3811,1.3801,1.3822,1.3836,1.3836,1.384,1.3823,1.3884,1.3891,1.3896,1.3915,1.3923,1.3828,1.3828,1.3828,1.3827,0,1.3927,1.3935,1.3953,1.3943,1.3944,1.396,1.3933,1.3937,1.3917,1.3902,1.3917,1.3904,1.3902,1.3905,1.3886,1.3924,1.3914,1.389,1.3857,1.3909,1.3926,1.3933,1.3833,1.3832,1.3831,1.383,0,0,1.4025,1.3998,1.4005,1.4,1.3983,1.3989,1.4003,1.4,1.4004,1.3998,1.4008,1.4014,1.3992,1.3989,1.3969,1.3982,1.4028,1.3956,1.3955,1.397,1.4068,1.4086,1.4095,1.4011,1.4013,1.4014,1.4069,0,1.4083,1.4106,1.408,1.4108,1.4114,1.4077,1.4089,1.408,1.4066,1.4069,1.4053,1.4057,1.4028,1.4026,1.4037,1.402,1.4047,1.4016,1.4021,1.4021,1.4025,1.4104,1.4123,1.4176,1.4075,1.4076,1.4077,0,1.4155,1.4151,1.418,1.416,1.4162,1.4173,1.4168,1.4172,1.4161,1.4149,1.4146,1.4121,1.4133,1.41,1.4116,1.4095,1.4095,1.4087,1.4089,1.4088,1.4053,1.4106,1.4192,1.42,1.4088,1.4087,1.4086,0,1.4223,1.4225,1.4242,1.4239,1.4217,1.4225,1.4217,1.4203,1.4203,1.4199,1.4198,1.4195,1.4194,1.4192,1.4167,1.4146,1.4186,1.4151,1.4176,1.4177,1.4187,1.4187,1.4274,1.4187,1.4187,1.4187,1.4187,0,1.4291,1.431,1.4272,1.4283,1.4303,1.4272,1.4292,1.428,1.4268,1.4275,1.4243,1.425,1.4217,1.422,1.4201,1.4216,1.4216,1.4207,1.4201,1.421,1.4211,1.421,1.4205,1.4189,1.4188,1.4188,1.4188,0,1.4371,1.4346,1.4363,1.434,1.4334,1.435,1.433,1.4339,1.4322,1.4331,1.4331,1.4305,1.4307,1.4282,1.428,1.4266,1.4291,1.4279,1.4295,1.4291,1.4318,1.4315,1.4408,1.4418,1.4325,1.4326,1.4326,0,1.4416,1.4429,1.4408,1.441,1.4402,1.4407,1.4406,1.4376,1.4377,1.4364,1.4374,1.4374,1.4372,1.4378,1.4358,1.4356,1.4344,1.4376,1.4343,1.4351,1.4344,1.4343,1.4344,1.4383,1.4384,1.4385,1.4386,0,1.4498,1.4485,1.4485,1.4482,1.4482,1.4477,1.447,1.4474,1.4441,1.4444,1.4446,1.4444,1.4441,1.4441,1.4435,1.4425,1.44,1.4396,1.4402,1.4411,1.4419,1.4415,1.4314,1.4395,1.4394,1.4393,1.4393,1.4392,1.4562,1.4571,1.4558,1.4559,1.455,1.4545,1.4551,1.4535,1.4536,1.4531,1.4513,1.4518,1.4505,1.4494,1.4487,1.449,1.4474,1.4482,1.4484,1.4487,1.4492,1.4419,1.4489,1.4488,1.4488,1.4488,1.4488,0,1.4642,1.4631,1.4632,1.4624,1.4624,1.46,1.4591,1.4593,1.4598,1.4588,1.4587,1.4588,1.4588,1.4568,1.4564,1.4571,1.4559,1.4571,1.457,1.4568,1.4506,1.4501,1.4581,1.4581,1.458,1.458,1.458,1.458,1.4684,1.4699,1.4684,1.4695,1.4683,1.4688,1.4685,1.4679,1.4671,1.4674,1.4673,1.466,1.4646,1.4641,1.4639,1.4633,1.4634,1.4649,1.464,1.4582,1.4573,1.4564,1.456,1.465,1.465,1.4702,1.4702,1.4702]}]]